Regional Weather Roundup
Issued by NWS

Home | Current Version | Previous Version | Text Only | Print | Product List | Glossary Off
Versions: 1 2 3 4 5 6 7 8 9 10 11 12 13 14 15 16 17 18 19 20 21 22 23 24 25 26 27 28 29 30 31 32 33 34 35 36 37 38 39 40 41 42 43 44 45 46 47 48 49 50

240
ASUS45 KBOI 190910
RWRID

IDAHO REGIONAL WEATHER ROUNDUP
NATIONAL WEATHER SERVICE BOISE ID
200 AM MST THU JAN 19 2017

NOTE: "FAIR" INDICATES FEW OR NO CLOUDS BELOW 12000 FEET
WITH NO SIGNIFICANT WEATHER AND/OR OBSTRUCTIONS TO VISIBILITY

IDZ012-014-191000-
SOUTHWEST IDAHO


CITY           SKY/WX    TMP DP  RH WIND       PRES   REMARKS
BOISE          CLOUDY    37  33  85 SE9       29.65R WCI  30
CALDWELL       LGT RAIN  34  32  92 SE18      29.66F WCI  23
MOUNTAIN HOME  LGT RAIN  33  33 100 SE22      29.68F WCI  21
$$

IDZ016-017-191000-
SOUTHCENTRAL IDAHO


CITY           SKY/WX    TMP DP  RH WIND       PRES   REMARKS
BURLEY         FLURRIES  35  29  78 S22G30    29.69F WCI  23
JEROME         LGT SNOW  26  25  96 NE23      29.72S FOG     WCI  11
TWIN FALLS     LGT RAIN  33  29  85 NE7       29.70R WCI  27
$$

IDZ019>023-191000-
SOUTHEAST IDAHO


CITY           SKY/WX    TMP DP  RH WIND       PRES   REMARKS
IDAHO FALLS    SNOW      20  19  96 N7        29.80F VSB 1/2 WCI  11
POCATELLO      LGT SNOW  25  23  92 N6        29.78F VSB 3/4 WCI  18
REXBURG        LGT SNOW  20  18  92 NE3       29.79F FOG
$$

IDZ006-010-011-018-031-032-191000-
CENTRAL IDAHO MOUNTAINS


CITY           SKY/WX    TMP DP  RH WIND       PRES   REMARKS
MCCALL         CLOUDY    33  31  92 SE6       29.58S WCI  28
HAILEY         LGT SNOW  28  28 100 CALM      29.73F
STANLEY          N/A     33  30  88 SE10      29.63F WCI  25
SALMON         CLOUDY    18  12  79 SW3       29.68F
CHALLIS        CLOUDY    17  17 100 W3        29.68F
$$

IDZ002-004-006-007-026-191000-
NORTHERN IDAHO


CITY           SKY/WX    TMP DP  RH WIND       PRES   REMARKS
LEWISTON       CLOUDY    38  32  79 E9        29.55F WCI  31
LOWELL           N/A     33  31  92 CALM      29.62R
COEUR D`ALENE  LGT RAIN  37  36  96 S3        29.51R
MULLAN PASS    SNOW      32  29  88 S7        29.46S VSB 1/2 WCI  26
$$




USA.gov is the U.S. government's official web portal to all federal, state and local government web resources and services.